This demonstration page uses our WeatherBlox Daily Observations layout. Learn more.

40.92945, -100.16068

Hourly Observations for January 10, 2015

Temp ( °F °C ) Dew Point ( °F °C ) Humidity (%) Winds ( mph kmh ) Pressure ( in mb ) Visibility ( mi km ) Precip ( " mm )
12:15 am 00:15 Clear 12 -10.9 5 -15 72 72 S 7 11 30.42 1030 10 16.0934 N/A
12:35 am 00:35 Clear 14 -9.9 6 -14.5 69 69 SSE 7 11 30.42 1030 10 16.0934 N/A
12:55 am 00:55 Clear 13 -10.4 6 -14.5 72 72 S 9 15 30.42 1030 10 16.0934 N/A
1:15 am 01:15 Clear 14 -10 6 -14.5 70 70 S 8 13 30.39 1029 10 16.0934 N/A
1:35 am 01:35 Clear 15 -9.2 6 -14.2 67 67 S 10 17 30.36 1028 10 16.0934 N/A
1:55 am 01:55 Clear 16 -9.1 7 -14.1 67 67 S 10 17 30.36 1028 10 16.0934 N/A
2:15 am 02:15 Clear 16 -9.1 7 -14 68 68 S 9 15 30.33 1027 10 16.0934 N/A
2:35 am 02:35 Clear 16 -8.7 8 -13.6 68 68 S 12 19 30.33 1027 10 16.0934 N/A
2:55 am 02:55 Clear 17 -8.5 8 -13.4 68 68 S 16 26 30.33 1027 10 16.0934 N/A
3:15 am 03:15 Clear 16 -8.9 8 -13.4 70 70 S 13 20 30.3 1026 10 16.0934 N/A
3:35 am 03:35 Clear 15 -9.2 8 -13.2 73 73 S 12 19 30.3 1026 10 16.0934 N/A
3:55 am 03:55 Clear 15 -9.6 8 -13.1 76 76 S 9 15 30.33 1027 10 16.0934 N/A
4:15 am 04:15 Clear 14 -9.8 9 -13 78 78 S 9 15 30.27 1025 10 16.0934 N/A
4:35 am 04:35 Clear 14 -9.8 9 -12.8 79 79 S 9 15 30.24 1024 10 16.0934 N/A
4:55 am 04:55 Clear 16 -9 11 -11.9 80 80 S 9 15 30.24 1024 10 16.0934 N/A
5:15 am 05:15 Clear 17 -8.5 12 -11.3 80 80 S 7 11 30.24 1024 10 16.0934 N/A
5:35 am 05:35 Clear 17 -8.2 13 -10.8 82 82 S 9 15 30.24 1024 10 16.0934 N/A
5:55 am 05:55 Clear 19 -7.5 14 -9.9 83 83 SSW 13 20 30.21 1023 10 16.0934 N/A
6:15 am 06:15 Clear 20 -6.6 15 -9.6 79 79 SSW 15 24 30.21 1023 10 16.0934 N/A
6:35 am 06:35 Clear 20 -6.6 15 -9.5 80 80 SSW 12 19 30.21 1023 10 16.0934 N/A
6:55 am 06:55 Clear 20 -6.5 15 -9.5 80 80 SSW 12 19 30.21 1023 10 16.0934 N/A
7:15 am 07:15 Clear 20 -6.7 15 -9.5 81 81 SSW 12 19 30.18 1022 10 16.0934 N/A
7:35 am 07:35 Clear 20 -6.7 15 -9.3 82 82 SSW 10 17 30.18 1022 10 16.0934 N/A
7:55 am 07:55 Clear 20 -6.6 15 -9.2 82 82 SSW 13 20 30.18 1022 10 16.0934 N/A
8:15 am 08:15 Sunny 21 -6.2 16 -9 81 81 SSW 13 20 30.18 1022 10 16.0934 N/A
8:35 am 08:35 Sunny 21 -6 16 -8.7 81 81 SSW 10 17 30.18 1022 10 16.0934 N/A
8:55 am 08:55 Sunny 23 -5.1 17 -8.1 80 80 SSW 7 11 30.15 1021 10 16.0934 N/A
9:15 am 09:15 Sunny 24 -4.7 18 -7.8 79 79 SSW 10 17 30.15 1021 10 16.0934 N/A
9:35 am 09:35 Sunny 24 -4.5 18 -7.6 79 79 SW 14 22 30.15 1021 10 16.0934 N/A
9:55 am 09:55 Sunny 26 -3.4 20 -6.9 77 77 SW 13 20 30.15 1021 10 16.0934 N/A
10:15 am 10:15 Sunny 27 -2.9 20 -6.5 77 77 SSW 12 19 30.15 1021 10 16.0934 N/A
10:35 am 10:35 Sunny 27 -2.6 21 -6.2 77 77 SSW 16 26 30.15 1021 10 16.0934 N/A
10:55 am 10:55 Sunny 28 -2.5 21 -6.1 77 77 SW 10 17 30.12 1020 10 16.0934 N/A
11:15 am 11:15 Sunny 29 -1.7 22 -5.5 76 76 SW 8 13 30.12 1020 10 16.0934 N/A
11:35 am 11:35 Sunny 31 -0.7 23 -4.9 74 74 WSW 9 15 30.12 1020 10 16.0934 N/A
11:55 am 11:55 Sunny 32 -0.2 24 -4.6 73 73 SW 10 17 30.12 1020 10 16.0934 N/A
12:15 pm 12:15 Sunny 32 0 24 -4.5 72 72 WSW 9 15 30.09 1019 10 16.0934 N/A
12:35 pm 12:35 Sunny 33 0.5 24 -4.3 71 71 WSW 7 11 30.06 1018 10 16.0934 N/A
12:55 pm 12:55 Sunny 33 0.8 25 -4.1 70 70 WSW 8 13 30.06 1018 10 16.0934 N/A
1:15 pm 13:15 Sunny 33 0.8 25 -4.1 70 70 WSW 6 9 30.06 1018 10 16.0934 N/A
1:35 pm 13:35 Sunny 35 1.6 25 -3.9 67 67 WSW 7 11 30.06 1018 10 16.0934 N/A
1:55 pm 13:55 Sunny 35 1.5 25 -3.7 69 69 WSW 5 7 30.06 1018 10 16.0934 N/A
2:15 pm 14:15 Sunny 35 1.8 25 -3.9 66 66 WSW 5 7 30.06 1018 10 16.0934 N/A
2:35 pm 14:35 Sunny 36 2.1 25 -4 64 64 W 5 7 30.03 1017 10 16.0934 N/A
2:55 pm 14:55 Sunny 37 2.5 25 -3.9 63 63 W 6 9 30.06 1018 10 16.0934 N/A
3:15 pm 15:15 Sunny 37 3 25 -4 60 60 W 3 6 30.06 1018 10 16.0934 N/A
3:35 pm 15:35 Sunny 38 3.2 25 -4 60 60 W 3 6 30.06 1018 10 16.0934 N/A
3:55 pm 15:55 Sunny 38 3.2 24 -4.5 57 57 Calm 30.06 1018 10 16.0934 N/A
4:15 pm 16:15 Sunny 38 3.2 24 -4.6 57 57 Calm 30.06 1018 10 16.0934 N/A
4:35 pm 16:35 Sunny 38 3.1 24 -4.2 59 59 Calm 30.06 1018 10 16.0934 N/A
4:55 pm 16:55 Sunny 35 1.6 24 -4.7 63 63 N 3 6 30.06 1018 10 16.0934 N/A
5:15 pm 17:15 Sunny 34 1 23 -5 65 65 Calm 30.09 1019 10 16.0934 N/A
5:35 pm 17:35 Clear 32 0.2 23 -5.2 67 67 NNE 3 6 30.12 1020 10 16.0934 N/A
5:55 pm 17:55 Clear 32 0 24 -4.7 71 71 Calm 30.12 1020 10 16.0934 N/A
6:15 pm 18:15 Clear 28 -2.3 22 -5.6 78 78 NNE 3 6 30.12 1020 10 16.0934 N/A
6:35 pm 18:35 Clear 26 -3.1 22 -5.7 82 82 NNE 3 6 30.15 1021 10 16.0934 N/A
6:55 pm 18:55 Clear 26 -3.3 22 -5.5 85 85 NNE 3 6 30.15 1021 10 16.0934 N/A
7:15 pm 19:15 Clear 25 -3.7 22 -5.8 86 86 N 5 7 30.18 1022 10 16.0934 N/A
7:35 pm 19:35 Clear 24 -4.4 21 -6.2 87 87 N 6 9 30.15 1021 10 16.0934 N/A
7:55 pm 19:55 Clear 24 -4.6 20 -6.5 87 87 NNE 6 9 30.21 1023 10 16.0934 N/A
8:15 pm 20:15 Clear 23 -4.8 20 -6.6 87 87 N 6 9 30.21 1023 10 16.0934 N/A
8:35 pm 20:35 Clear 24 -4.3 20 -6.5 85 85 Calm 30.18 1022 10 16.0934 N/A
8:55 pm 20:55 Clear 25 -4 21 -6.3 84 84 Calm 30.18 1022 10 16.0934 N/A
9:15 pm 21:15 Clear 25 -4 20 -6.4 84 84 Calm 30.18 1022 10 16.0934 N/A
9:35 pm 21:35 Clear 22 -5.4 19 -7.1 88 88 Calm 30.21 1023 10 16.0934 N/A
9:55 pm 21:55 Clear 22 -5.5 19 -7 89 89 Calm 30.21 1023 10 16.0934 N/A
10:15 pm 22:15 Clear 20 -6.7 18 -8 91 91 N 3 6 30.21 1023 10 16.0934 N/A
10:35 pm 22:35 Clear 18 -7.7 16 -9 91 91 Calm 30.24 1024 10 16.0934 N/A
10:55 pm 22:55 Clear 17 -8.3 14 -9.8 89 89 N 3 6 30.24 1024 10 16.0934 N/A
11:15 pm 23:15 Clear 18 -8 15 -9.2 91 91 N 5 7 30.24 1024 10 16.0934 N/A
11:35 pm 23:35 Clear 18 -7.9 15 -9.3 90 90 Calm 30.21 1023 10 16.0934 N/A
11:55 pm 23:55 Clear 17 -8.5 14 -10 89 89 Calm 30.21 1023 10 16.0934 N/A

Powered by AerisWeather